Weather History for Meridian NAS, MS

Change the Weather History Date:

Tuesday, September 11, 2012

  Actual Average Record
Temperature  
Mean Temperature 70 °F -  
Max Temperature 84 °F 84 °F 98 °F (2002)
Min Temperature 57 °F 64 °F 57 °F (1997)
Cooling Degree Days 6    
Growing Degree Days 20 (Base 50)    
Moisture  
Dew Point 59 °F    
Average Humidity 73    
Maximum Humidity 97    
Minimum Humidity 37    
Precipitation  
Precipitation 0.00 in - - ()
Sea Level Pressure  
Sea Level Pressure 30.18 in    
Wind  
Wind Speed 3 mph (SE)    
Max Wind Speed 10 mph    
Max Gust Speed -    
Visibility 10 miles    
Events      
Averages and records for this station are not official NWS values.
T = Trace of Precipitation, MM = Missing Value Source: NWS Daily Summary

Daily Weather History Graph

Daily Weather History Graph

Search for Another Location

Airport:

Trip Planner

Search our weather history database for the weather conditions in past years. The results will help you decide how hot, cold, wet, or windy it might be!

Date:

Astronomy

Sep. 11, 2012 Rise Set
Actual Time 6:35 AM CDT 7:05 PM CDT
Civil Twilight 6:11 AM CDT 7:29 PM CDT
Nautical Twilight 5:41 AM CDT 7:58 PM CDT
Astronomical Twilight 5:12 AM CDT 8:28 PM CDT
Moon 2:05 AM CDT (9/11) 4:04 PM CDT (9/11)
Length of Visible Light 13h 18m
Length of Day
12h 29m
Waning Crescent, 21% of the Moon is Illuminated
Sep 11
Waning Crescent
Sep 15
New
Sep 22
First Quarter
Sep 29
Full
Oct 8
Last Quarter

Hourly Weather History & Observations

Time (CDT) Temp. Heat Index Dew Point Humidity Pressure Visibility Wind Dir Wind Speed Gust Speed Precip Events Conditions
12:56 AM 63.0 °F - 60.1 °F 90% 30.13 in 10.0 mi WNW 3.5 mph - N/A   Clear
1:56 AM 61.0 °F - 59.0 °F 93% 30.13 in 10.0 mi Calm Calm - N/A   Clear
2:56 AM 60.1 °F - 57.9 °F 93% 30.13 in 10.0 mi Calm Calm - N/A   Clear
3:56 AM 59.0 °F - 57.0 °F 93% 30.14 in 9.0 mi Calm Calm - N/A   Clear
4:56 AM 57.9 °F - 57.0 °F 97% 30.15 in 9.0 mi Calm Calm - N/A   Partly Cloudy
5:56 AM 59.0 °F - 57.0 °F 93% 30.17 in 10.0 mi Calm Calm - N/A   Mostly Cloudy
6:56 AM 59.0 °F - 57.0 °F 93% 30.19 in 10.0 mi Calm Calm - N/A   Mostly Cloudy
7:56 AM 63.0 °F - 59.0 °F 87% 30.21 in 10.0 mi Calm Calm - N/A   Mostly Cloudy
8:56 AM 69.1 °F - 62.1 °F 78% 30.22 in 10.0 mi Calm Calm - N/A   Partly Cloudy
9:56 AM 75.9 °F - 60.8 °F 59% 30.23 in 10.0 mi Variable 4.6 mph - N/A   Scattered Clouds
10:56 AM 81.0 °F - - N/A% 30.24 in 10.0 mi ESE 9.2 mph - N/A   Mostly Cloudy
11:56 AM 81.0 °F 81.7 °F 61.0 °F 50% 30.23 in 10.0 mi SSE 6.9 mph - N/A   Partly Cloudy
12:56 PM 84.0 °F 83.0 °F 55.9 °F 38% 30.20 in 10.0 mi SE 10.4 mph - N/A   Scattered Clouds
1:56 PM 84.0 °F 82.9 °F 55.0 °F 37% 30.19 in 10.0 mi East 9.2 mph - N/A   Partly Cloudy
2:56 PM 84.9 °F 83.7 °F 55.9 °F 37% 30.17 in 10.0 mi SSE 4.6 mph - N/A   Scattered Clouds
3:56 PM 84.0 °F 83.3 °F 57.0 °F 40% 30.16 in 10.0 mi ESE 9.2 mph - N/A   Partly Cloudy
4:56 PM 82.9 °F 82.8 °F 59.0 °F 44% 30.15 in 10.0 mi ESE 9.2 mph - N/A   Scattered Clouds
5:56 PM 79.0 °F - 62.1 °F 56% 30.16 in 10.0 mi SE 4.6 mph - N/A   Scattered Clouds
6:56 PM 73.9 °F - 63.0 °F 68% 30.17 in 10.0 mi ESE 3.5 mph - N/A   Partly Cloudy
7:56 PM 70.0 °F - 63.0 °F 78% 30.18 in 10.0 mi Calm Calm - N/A   Partly Cloudy
8:56 PM 68.0 °F - 63.0 °F 84% 30.19 in 10.0 mi Calm Calm - N/A   Clear
9:56 PM 64.9 °F - 62.1 °F 90% 30.20 in 10.0 mi Calm Calm - N/A   Clear
10:56 PM 66.0 °F - 62.1 °F 87% 30.21 in 10.0 mi Calm Calm - N/A   Clear
11:56 PM 64.0 °F - 62.1 °F 93% 30.20 in 9.0 mi Calm Calm - N/A   Clear